Change the Weather History Date:

Wednesday, December 31, 2014

  Actual Average Record
Temperature  
Mean Temperature 20 °F 33 °F  
Max Temperature 26 °F 42 °F 76 °F (1951)
Min Temperature 14 °F 23 °F -6 °F (1976)
Degree Days  
Heating Degree Days 45 32  
Month to date heating degree days 820 932  
Since 1 July heating degree days 1770 1810  
Cooling Degree Days 0 0  
Month to date cooling degree days 0 0  
Year to date cooling degree days 1470 1389  
Moisture  
Dew Point 8 °F    
Average Humidity 56    
Maximum Humidity 74    
Minimum Humidity 38    
Precipitation  
Precipitation 0.00 in 0.08 in 1.90 in (1984)
Month to date precipitation 1.77 3.04  
Year to date precipitation 38.59 45.57  
Snow  
Snow 0.00 in - - ()
Month to date snowfall 0.5  
Since 1 July snowfall 2.2  
Snow Depth 0.00 in    
Sea Level Pressure  
Sea Level Pressure 30.57 in    
Wind  
Wind Speed 6 mph (NW)    
Max Wind Speed 14 mph    
Max Gust Speed 16 mph    
Visibility 10 miles    
Events      
T = Trace of Precipitation, MM = Missing Value Source: NWS Daily Summary

Daily Weather History Graph

Daily Weather History Graph

Search for Another Location

Airport or City:

Trip Planner

Search our weather history database for the weather conditions in past years. The results will help you decide how hot, cold, wet, or windy it might be!

Date:

Astronomy

Dec. 31, 2014 Rise Set
Actual Time 7:27 AM CST 5:06 PM CST
Civil Twilight 6:58 AM CST 5:35 PM CST
Nautical Twilight 6:25 AM CST 6:07 PM CST
Astronomical Twilight 5:54 AM CST 6:39 PM CST
Moon 1:54 PM CST (12/31) 2:57 AM CST (12/31)
Length of Visible Light 10h 36m
Length of Day
9h 38m
Waxing Gibbous, 80% of the Moon is Illuminated
Dec 31
Waxing Gibbous
Jan 4
Full
Jan 13
Last Quarter
Jan 20
New
Jan 26
First Quarter

Hourly Weather History & Observations

Time (CST) Temp. Windchill Dew Point Humidity Pressure Visibility Wind Dir Wind Speed Gust Speed Precip Events Conditions
12:52 AM 21.0 °F 10.6 °F 6.1 °F 53% 30.68 in 10.0 mi NNE 9.2 mph - N/A   Overcast
1:52 AM 19.9 °F 8.6 °F 6.1 °F 55% 30.68 in 10.0 mi North 10.4 mph - N/A   Overcast
2:52 AM 19.9 °F 9.3 °F 6.1 °F 55% 30.67 in 10.0 mi North 9.2 mph - N/A   Overcast
3:52 AM 18.0 °F 7.7 °F 6.1 °F 60% 30.67 in 10.0 mi North 8.1 mph - N/A   Mostly Cloudy
4:52 AM 16.0 °F 8.8 °F 6.1 °F 65% 30.64 in 10.0 mi North 4.6 mph - N/A   Clear
5:52 AM 15.1 °F 6.4 °F 5.0 °F 64% 30.66 in 10.0 mi North 5.8 mph - N/A   Partly Cloudy
6:52 AM 15.1 °F 6.4 °F 6.1 °F 68% 30.65 in 10.0 mi North 5.8 mph - N/A   Overcast
7:52 AM 15.1 °F 6.4 °F 6.1 °F 68% 30.67 in 10.0 mi North 5.8 mph - N/A   Partly Cloudy
8:52 AM 16.0 °F 4.4 °F 5.0 °F 62% 30.66 in 10.0 mi NNE 9.2 mph - N/A   Clear
9:52 AM 19.9 °F 14.9 °F 6.1 °F 55% 30.67 in 10.0 mi ENE 3.5 mph - N/A   Clear
10:52 AM 21.0 °F - 5.0 °F 50% 30.66 in 10.0 mi Calm Calm - N/A   Mostly Cloudy
11:52 AM 23.0 °F - 3.0 °F 42% 30.61 in 10.0 mi Calm Calm - N/A   Mostly Cloudy
12:52 PM 25.0 °F 20.7 °F 3.9 °F 41% 30.56 in 10.0 mi Variable 3.5 mph - N/A   Overcast
1:52 PM 26.1 °F 19.4 °F 5.0 °F 41% 30.54 in 10.0 mi SW 5.8 mph - N/A   Overcast
2:52 PM 25.0 °F 17.1 °F 3.0 °F 39% 30.53 in 10.0 mi WSW 6.9 mph - N/A   Overcast
3:52 PM 25.0 °F 16.3 °F 7.0 °F 46% 30.52 in 10.0 mi WSW 8.1 mph - N/A   Overcast
4:52 PM 25.0 °F 17.1 °F 10.0 °F 53% 30.50 in 10.0 mi WSW 6.9 mph - N/A   Overcast
5:52 PM 25.0 °F 17.1 °F 10.9 °F 55% 30.48 in 10.0 mi WSW 6.9 mph - N/A   Overcast
6:52 PM 25.0 °F 17.1 °F 12.0 °F 58% 30.48 in 10.0 mi WSW 6.9 mph - N/A   Overcast
7:52 PM 25.0 °F 17.1 °F 12.9 °F 60% 30.47 in 10.0 mi WSW 6.9 mph - N/A   Overcast
8:52 PM 24.1 °F 17.0 °F 14.0 °F 65% 30.46 in 10.0 mi WSW 5.8 mph - N/A   Clear
9:52 PM 24.1 °F 17.0 °F 14.0 °F 65% 30.45 in 10.0 mi WSW 5.8 mph - N/A   Clear
10:52 PM 23.0 °F 18.4 °F 15.1 °F 72% 30.42 in 10.0 mi NW 3.5 mph - N/A   Clear
11:52 PM 23.0 °F 15.8 °F 15.1 °F 72% 30.43 in 10.0 mi SW 5.8 mph - N/A   Clear